Simultaneous Nadir Overpasses (SNOs) Predictions

Prediction of SNOs between METOP-B and NOAA-19 Satellite Orbit:

Table of predicted SNOs for the next 14.0 days since TLE Epoch: 7/1/2013
Index Date (METOP-B) Time (METOP-B) Lat,Lon (METOP-B) SZA (METOP-B ) Date (NOAA-19) Time (NOAA-19) Lat,Lon (NOAA-19) SZA (NOAA-19 ) Distance(km) Time Diff (sec)
1 07/04/2013 02:41:08 73.48, 133.55 50.68 07/04/2013 02:39:54 73.50, 133.06 50.73 15.65 74
2 07/04/2013 03:31:52 -73.36, -59.40 129.43 07/04/2013 03:30:57 -73.36, -59.39 129.42 0.52 55
3 07/04/2013 04:22:32 73.36, 107.94 50.58 07/04/2013 04:21:56 73.37, 107.83 50.60 3.80 36
4 07/04/2013 05:13:14 -73.34, -84.78 129.44 07/04/2013 05:13:01 -73.33, -84.85 129.44 2.29 13
5 07/04/2013 06:03:55 73.29, 82.44 50.52 07/04/2013 06:03:59 73.30, 82.48 50.53 1.77 4
6 07/04/2013 06:54:37 -73.27,-110.28 129.50 07/04/2013 06:55:04 -73.26,-110.20 129.52 2.79 27
7 07/04/2013 07:45:17 73.27, 57.05 50.51 07/04/2013 07:46:03 73.28, 57.01 50.51 1.53 46
8 07/04/2013 08:35:59 -73.25,-135.67 129.51 07/04/2013 08:37:08 -73.23,-135.66 129.54 1.42 69
9 07/04/2013 09:26:49 72.74, 30.58 50.05 07/04/2013 09:27:57 72.75, 32.65 49.95 68.16 68
10 07/14/2013 03:24:44 -73.74, -56.76 127.87 07/14/2013 03:23:33 -73.78, -58.45 127.74 52.70 71
11 07/14/2013 04:15:31 73.37, 109.72 51.81 07/14/2013 04:14:22 73.36, 109.80 51.81 2.89 69
12 07/14/2013 05:06:13 -73.37, -82.95 128.19 07/14/2013 05:05:29 -73.37, -82.98 128.18 1.10 44
13 07/14/2013 05:56:53 73.35, 84.33 51.80 07/14/2013 05:56:26 73.34, 84.34 51.80 1.04 27
14 07/14/2013 06:47:35 -73.35,-108.34 128.20 07/14/2013 06:47:33 -73.34,-108.45 128.20 3.51 2
15 07/14/2013 07:38:15 73.33, 58.94 51.79 07/14/2013 07:38:30 73.32, 58.87 51.78 2.45 15
16 07/14/2013 08:28:58 -73.28,-133.84 128.25 07/14/2013 08:29:36 -73.27,-133.80 128.27 1.42 38
17 07/14/2013 09:19:38 73.25, 33.44 51.74 07/14/2013 09:20:33 73.24, 33.52 51.71 2.75 55
18 07/14/2013 10:10:23 -73.06,-159.67 128.44 07/14/2013 10:11:36 -73.10,-158.94 128.44 24.20 73




NCC Satellite Simultaneous Nadir Overpasses (SN
